#timestamp,LO_Frequency,Hit,StdDev 
1455613215.7,286046999.4,N
1455613235.6,286046996.5,N
1455613255.4,286046999.6,N
1455613275.2,286047000.4,N
1455613295.1,286047000.0,N
1455613296.0,286047000.0,N
1455613315.8,286047001.3,N
1455613335.6,286047002.7,N
1455613355.5,286047000.0,N
1455613375.3,286046999.7,N
1455613395.1,286047000.1,N
1455613415.8,286046999.9,N
1455613435.7,286046999.7,N
1455613455.5,286047003.4,N
1455613475.3,286047002.6,N
1455613495.2,286046999.0,N
1455613515.9,286046998.3,N
1455613535.7,286046999.4,N
1455613555.6,286046997.0,N
1455613575.4,286046996.7,N
1455613595.2,286046999.5,N
1455613615.1,286046999.2,N
1455613616.0,286046999.2,N
1455613635.8,286046999.2,N
1455613655.6,286047001.2,N
1455613675.5,286047000.0,N
1455613695.3,286046998.3,N
1455613715.1,286046998.3,N
1455613735.9,286046997.1,N
1455613755.7,286046997.5,N
1455613775.5,286046996.1,N
1455613795.3,286046995.2,N
1455613815.2,286046999.5,N
1455613835.0,286046997.6,N
1455613835.9,286046997.6,N
1455613855.7,286046997.5,N
1455613875.6,286046995.6,N
1455613895.4,286046999.4,N
1455613915.2,286046996.5,N
1455613935.1,286047000.9,N
1455613936.0,286047000.9,N
1455613955.8,286047000.2,N
1455613975.6,286046999.6,N
1455613995.5,286046996.6,N
1455614015.3,286047001.2,N
1455614035.1,286047000.5,N
1455614055.9,286046995.1,N
1455614075.7,286046997.8,N
1455614095.5,286046997.4,N
1455614115.4,286046993.6,Y
1455614135.2,286046992.0,P
1455614155.0,286046992.8,N
1455614155.9,286046992.8,N
1455614175.8,286046996.2,N
1455614195.6,286046994.3,N
1455614215.4,286046995.7,N
1455614235.2,286046995.3,N
1455614255.1,286046994.8,N
1455614256.0,286046994.8,N
1455614275.8,286046992.5,Y
1455614295.7,286046993.3,P
1455614315.5,286046991.7,P
1455614335.3,286046990.6,P
1455614355.2,286046994.6,Y
1455614375.9,286047000.0,P
1455614395.7,286046998.3,N
1455614415.6,286047000.5,N
1455614435.4,286046999.0,N
1455614455.2,286046998.7,N
1455614475.0,286046998.3,N
1455614475.9,286046998.3,N
1455614495.8,286046998.9,N
1455614515.6,286046999.2,N
1455614535.4,286046998.3,N
1455614555.3,286047002.5,N
1455614575.1,286047001.5,N
1455614595.8,286047000.4,N
1455614615.7,286047002.1,N
1455614635.5,286047000.4,N
1455614655.3,286047002.8,N
1455614675.2,286047001.6,N
1455614695.9,286047002.4,N
1455614715.7,286047001.2,N
1455614735.5,286046999.3,N
1455614755.4,286047001.1,N
1455614775.2,286047000.9,N
1455614795.0,286047003.1,N
1455614795.9,286047003.1,N
1455614815.8,286047004.2,N
1455614835.6,286046999.9,N
1455614855.4,286047002.6,N
1455614875.3,286046999.8,N
1455614895.1,286047000.2,N
1455614896.0,286047000.2,N
1455614915.8,286047001.0,N
1455614935.7,286047000.9,N
1455614955.5,286046997.0,N
1455614975.3,286046998.2,N
1455614995.2,286046998.6,N
1455615015.9,286046998.7,N
1455615035.7,286046997.2,N
1455615055.5,286046997.0,N
1455615075.4,286046997.6,N
1455615095.2,286046995.9,N
1455615115.0,286046994.1,N
1455615115.9,286046994.1,N
1455615135.8,286046995.5,N
1455615155.6,286046994.9,N
1455615175.4,286046995.4,N
1455615195.3,286046994.6,N
1455615215.1,286046991.7,N
1455615235.8,286046994.0,N
1455615255.7,286046993.3,N
1455615275.5,286046990.9,N
1455615295.3,286046990.7,N
1455615315.2,286046986.9,Y
1455615335.9,286046987.5,P
1455615355.7,286046985.8,N
1455615375.6,286046989.0,N
1455615395.4,286046987.4,N
1455615415.2,286046985.6,Y
1455615435.1,286046995.2,P
1455615436.0,286046995.2,N
1455615455.8,286046995.4,N
1455615475.6,286046995.4,N
1455615495.5,286046993.6,N
1455615515.3,286046995.5,N
1455615535.1,286046994.1,N
1455615555.9,286046993.6,Y
1455615575.7,286047000.3,P
1455615595.5,286047001.0,N
1455615615.4,286046999.0,N
1455615635.2,286047000.7,N
1455615655.0,286046998.4,N
1455615655.9,286046998.4,N
1455615675.7,286047000.9,N
1455615695.6,286047004.4,N
1455615715.4,286047001.6,N
1455615735.2,286047005.0,N
1455615755.1,286047002.1,N
1455615756.0,286047002.1,N
1455615775.8,286047004.0,N
1455615795.6,286047004.6,N
1455615815.5,286047004.8,N
1455615835.3,286047004.5,N
1455615855.1,286047004.6,N
1455615875.9,286047006.0,N
1455615895.7,286047008.7,N
1455615915.5,286047004.5,N
1455615935.4,286047007.7,N
1455615955.2,286047011.8,Y
1455615975.0,286047010.3,P
1455615975.9,286047010.3,N
1455615995.8,286047013.2,P
1455616015.6,286047013.9,Y
1455616035.4,286047008.7,P
1455616055.3,286047006.8,P
1455616075.1,286047007.3,P
1455616076.0,286047007.3,Y
1455616095.8,286046996.6,P
1455616115.7,286046999.3,N
1455616135.5,286046997.4,N
1455616155.3,286046996.8,N
1455616175.2,286046999.5,N
1455616195.9,286046997.6,N
1455616215.7,286046996.8,N
1455616235.5,286046994.4,N
1455616255.4,286046996.4,N
1455616275.2,286046996.6,N
1455616295.0,286046998.9,N
1455616295.9,286046998.9,N
1455616315.8,286046999.2,N
1455616335.6,286046997.6,N
1455616355.4,286046995.6,N
1455616375.3,286046997.5,N
1455616395.1,286046992.3,N
1455616396.0,286046992.3,N
1455616415.8,286046994.2,N
1455616435.7,286046993.7,N
1455616455.5,286046994.2,N
1455616475.3,286046997.0,N
1455616495.2,286046995.3,N
1455616515.9,286046996.3,N
1455616535.7,286046994.2,N
1455616555.5,286046994.7,N
1455616575.4,286046990.1,Y
1455616595.2,286046995.8,P
1455616615.0,286046997.6,P
1455616616.0,286046997.6,P
1455616635.8,286046998.4,N
1455616655.6,286047001.0,N
1455616675.4,286046998.3,N
1455616695.3,286046995.5,N
1455616715.1,286046996.7,N
1455616735.8,286046998.5,N
1455616755.7,286046999.2,N
1455616775.5,286046998.9,N
1455616795.3,286046999.7,N
1455613215.2,286047005.4,N
1455613235.1,286047004.0,N
1455613236.0,286047004.0,N
1455613255.8,286047004.7,N
1455613275.6,286047004.5,N
1455613295.5,286047002.0,N
1455613315.3,286046999.0,N
1455613335.2,286046995.2,N
1455613355.9,286046991.1,N
1455613375.7,286046989.4,N
1455613395.5,286046987.5,N
1455613415.4,286046989.6,N
1455613435.2,286046989.8,N
1455613455.0,286046987.4,N
1455613455.9,286046987.4,N
1455613475.8,286046989.2,N
1455613495.6,286046991.1,N
1455613515.4,286046990.8,N
1455613535.3,286046990.3,N
1455613555.1,286046990.8,N
1455613556.0,286046990.8,N
1455613575.8,286046990.9,N
1455613595.7,286046988.1,N
1455613615.5,286046987.8,N
1455613635.3,286046989.8,N
1455613655.2,286046992.2,N
1455613675.9,286046992.8,N
1455613695.7,286046995.9,N
1455613715.5,286046996.2,N
1455613735.4,286046998.7,N
1455613755.2,286047002.4,N
1455613775.0,286047002.2,N
1455613775.9,286047002.2,N
1455613795.8,286047002.3,N
1455613815.6,286047008.7,N
1455613835.4,286047008.1,N
1455613855.3,286047010.4,N
1455613875.1,286047009.5,N
1455613895.8,286047010.3,N
1455613915.7,286047009.9,N
1455613935.5,286047011.7,N
1455613955.3,286047011.5,N
1455613975.2,286047009.3,N
1455613995.9,286047012.3,N
1455614015.7,286047008.3,N
1455614035.6,286047007.0,N
1455614055.4,286047007.5,N
1455614075.2,286047004.4,N
1455614095.0,286047005.3,N
1455614096.0,286047005.3,N
1455614115.8,286047003.2,N
1455614135.6,286047004.3,N
1455614155.4,286047005.6,N
1455614175.3,286047004.7,N
1455614195.1,286047005.8,N
1455614215.8,286047006.1,N
1455614235.7,286047004.9,N
1455614255.5,286047002.9,N
1455614275.3,286047005.1,N
1455614295.2,286047006.3,N
1455614315.9,286047007.4,N
1455614335.7,286047007.6,N
1455614355.6,286047004.6,N
1455614375.4,286047006.7,N
1455614395.2,286047002.9,N
1455614415.1,286047006.0,N
1455614416.0,286047006.0,N
1455614435.8,286047002.4,N
1455614455.6,286047001.7,N
1455614475.4,286047001.8,N
1455614495.3,286047002.1,N
1455614515.1,286047004.0,N
1455614535.8,286047003.4,N
1455614555.7,286047005.3,N
1455614575.5,286047003.7,N
1455614595.3,286047004.1,N
1455614615.2,286046999.7,N
1455614635.9,286047000.4,N
1455614655.7,286047002.0,N
1455614675.6,286047002.4,N
1455614695.4,286046998.3,N
1455614715.2,286046994.9,N
1455614735.1,286046994.6,N
1455614736.0,286046994.6,N
1455614755.8,286046994.8,N
1455614775.6,286046998.0,N
1455614795.5,286046992.7,N
1455614815.3,286046991.8,N
1455614835.1,286046993.6,N
1455614855.8,286046994.3,N
1455614875.7,286046991.8,N
1455614895.5,286046995.5,N
1455614915.3,286046996.0,N
1455614935.2,286046998.0,N
1455614955.9,286046997.8,N
1455614975.7,286046996.7,N
1455614995.6,286046999.9,N
1455615015.4,286047003.9,N
1455615035.2,286047001.8,N
1455615055.1,286047002.2,N
1455615056.0,286047002.2,N
1455615075.8,286047000.5,N
1455615095.6,286047001.9,N
1455615115.5,286047005.7,N
1455615135.3,286047006.5,N
1455615155.1,286047010.6,N
1455615175.9,286047006.7,N
1455615195.7,286047007.3,N
1455615215.5,286047008.0,N
1455615235.3,286047008.8,N
1455615255.2,286047011.6,N
1455615275.0,286047011.4,N
1455615275.9,286047011.4,N
1455615295.7,286047016.7,N
1455615315.6,286047020.1,N
1455615335.4,286047020.2,N
1455615355.2,286047017.4,N
1455615375.1,286047015.8,N
1455615376.0,286047015.8,N
1455615395.8,286047016.4,N
1455615415.6,286047012.5,N
1455615435.5,286047013.4,N
1455615455.3,286047013.4,N
1455615475.1,286047016.1,N
1455615495.9,286047015.0,N
1455615515.7,286047013.7,N
1455615535.5,286047012.2,N
1455615555.4,286047011.3,N
1455615575.2,286047011.3,N
1455615595.0,286047009.4,N
1455615595.9,286047009.4,N
1455615615.8,286047011.3,N
1455615635.6,286047013.5,Y
1455615655.4,286047002.3,P
1455615675.3,286047002.8,N
1455615695.1,286046998.1,N
1455615696.0,286046998.1,N
1455615715.8,286046999.4,N
1455615735.7,286046998.3,N
1455615755.5,286046999.1,N
1455615775.3,286046996.6,N
1455615795.2,286046996.8,N
1455615815.0,286046993.9,N
1455615815.9,286046993.9,N
1455615835.8,286046991.9,N
1455615855.6,286046994.6,N
1455615875.4,286046994.7,N
1455615895.3,286046992.7,N
1455615915.1,286046995.2,N
1455615935.8,286046994.9,N
1455615955.7,286046997.3,N
1455615975.5,286046992.0,N
1455615995.3,286046994.4,N
1455616015.2,286046992.0,N
1455616035.9,286046997.3,N
1455616055.7,286046998.9,N
1455616075.6,286046998.6,N
1455616095.4,286047003.6,N
1455616115.2,286047006.5,N
1455616135.0,286047006.8,N
1455616135.9,286047006.8,N
1455616155.8,286047008.8,N
1455616175.6,286047007.4,N
1455616195.4,286047007.5,N
1455616215.3,286047008.2,N
1455616235.1,286047007.7,N
1455616255.8,286047008.5,N
1455616275.7,286047008.5,N
1455616295.5,286047010.8,N
1455616315.3,286047010.0,N
1455616335.2,286047009.5,N
1455616355.9,286047011.2,N
1455616375.7,286047012.6,N
1455616395.6,286047012.9,N
1455616415.4,286047013.6,N
1455616435.2,286047013.0,N
1455616455.0,286047011.2,N
1455616455.9,286047011.2,N
1455616475.8,286047013.5,N
1455616495.6,286047011.0,N
1455616515.4,286047011.6,N
1455616535.3,286047009.6,N
1455616555.1,286047009.8,N
1455616575.8,286047012.4,N
1455616595.7,286047010.1,N
1455616615.5,286047012.4,Y
1455616635.3,286047000.1,P
1455616655.2,286047000.3,N
1455616675.9,286047000.5,N
1455616695.7,286046999.7,N
1455616715.6,286047001.9,N
1455616735.4,286047003.7,N
1455616755.2,286047004.3,N
1455616775.1,286047007.5,N
1455616776.0,286047007.5,N
1455616795.8,286047004.1,N
